Location: Columbia
(38.9520°N, 92.3340°W)
Time: 21:32:08
(UTC-05:00)

Daily predictions for brighter satellites

Satellite Brightness Start Highest point End
(mag) Time Altitude Azimuth Time Altitude Azimuth Time Altitude Azimuth
Cosmos 2082 Rocket 2.7 19:48:32 10° N 19:53:54 41° ENE 19:59:13 10° SE
Cosmos 1818 3.6 19:51:28 10° NNW 19:56:55 71° ENE 20:02:18 10° SE
Tiangong 1 3.7 19:57:26 10° WSW 19:58:48 13° SW 20:00:10 10° S
Cosmos-2242 4.0 19:57:13 10° SE 20:00:37 24° E 20:04:04 10° NE
FengYun 1-2 T 4.4 19:55:35 10° SSE 20:01:02 59° ENE 20:06:33 10° N
BREEZE-M DEB (TANK) 3.2 20:00:01 10° SSW 20:02:40 36° SE 20:09:06 10° ENE
Cosmos 1766 Rocket 4.4 20:00:22 10° NNE 20:04:24 31° ENE 20:08:22 10° SE
ALOS 2.2 20:03:13 10° SSE 20:07:53 77° ENE 20:12:34 10° N
Meteor 1-24 Rocket 4.5 20:03:00 10° NNW 20:08:29 59° W 20:14:08 10° S
Timation 1 Rocket 4.5 20:04:05 10° SSW 20:10:05 85° WNW 20:16:09 10° NNE
Cosmos 1271 Rocket 3.6 20:08:23 10° SSE 20:11:55 30° E 20:15:28 10° NNE
GP-B 3.9 20:09:24 10° SE 20:13:18 31° E 20:17:13 10° NNE
Spot 2 Rocket 3.6 20:11:23 10° SSE 20:16:21 56° ENE 20:21:22 10° N
Cosmos 1674 3.2 20:12:51 10° N 20:16:23 36° ENE 20:19:56 10° SSE
Meteor 1-4 Rocket 2.4 20:13:29 10° S 20:16:57 86° E 20:20:27 10° N
Cosmos 1758 3.3 20:18:12 10° S 20:22:10 85° W 20:26:12 10° N
USA 186 2.3 20:22:53 19° ENE 20:22:58 19° ENE 20:24:40 10° NNE
Resurs 01 Rocket 1.6 20:20:13 10° SSE 20:24:36 72° ENE 20:29:01 10° N
Cosmos 2098 Rocket 4.4 20:17:27 10° S 20:24:47 79° E 20:32:21 10° N
CZ-4C R/B 3.6 20:24:47 10° SE 20:33:11 - NE 20:26:27 14° ESE
Cosmos 1953 2.5 20:23:40 10° S 20:27:43 80° W 20:31:48 10° N
Cosmos 1184 Rocket 4.4 20:25:50 10° NNE 20:28:12 18° ENE 20:28:29 17° E
GPS 2-05 Rocket1 3.3 20:27:28 10° WSW 20:30:53 49° S 20:32:54 22° ESE
Cosmos 1544 4.2 20:28:32 10° SSW 20:32:03 46° W 20:35:37 10° N
Cosmos 1867 4.3 20:27:13 10° SW 20:32:34 58° NW 20:37:58 10° NNE
OAO 2 Rocket 4.3 20:28:50 10° SW 20:33:23 32° SSE 20:36:08 20° ESE
Envisat 3.8 20:31:29 16° ESE 20:34:43 31° ENE 20:39:10 10° N
Cosmos 1743 Rocket 4.4 20:31:24 10° NNE 20:35:23 31° ENE 20:37:42 20° SE
SeaSat 1 2.5 20:33:58 10° SSE 20:38:53 83° WSW 20:43:51 10° NNW
Cosmos 2100 Rocket 4.0 20:34:05 10° S 20:40:17 63° E 20:46:35 10° NNE
CZ-4B DEB 3.6 20:41:46 28° E 20:42:00 29° ENE 20:44:43 10° N
Cosmos 2369 Rocket 3.3 20:42:50 21° E 20:42:50 21° E 20:46:35 10° NE
Cosmos 1939 Rocket 4.0 20:41:38 24° E 20:42:42 27° ENE 20:46:12 10° NNE
ERS-1 Rocket 4.3 20:43:12 20° E 20:44:19 21° ENE 20:48:01 10° NNE
Geosat 3.9 20:43:17 10° NNE 20:48:17 62° ESE 20:53:14 10° SSW
Lacrosse 5 rocket 1.1 20:44:43 10° NW 20:48:38 70° NE 20:50:08 34° ESE
CZ-2D R/B 3.3 20:45:13 10° S 20:49:05 78° WSW 20:52:59 10° NNW
Cosmos 1048 Rocket 4.4 20:45:05 10° NNW 20:50:08 62° WSW 20:55:10 10° S
Helios 1B rocket 2.3 20:46:27 10° NNE 20:50:33 63° ESE 20:54:37 10° S
Cosmos 2151 4.2 20:48:11 10° NNE 20:51:27 24° ENE 20:51:27 24° ENE
ISS -2.2 20:50:01 10° W 20:53:00 33° NNW 20:55:50 11° NE
Cosmos 1408 Rocket 3.8 20:49:52 10° NNW 20:54:20 72° W 20:58:46 10° S
Cosmos 1833 Rocket 3.0 20:49:52 10° NNW 20:55:28 68° WSW 21:01:02 10° S
Resurs 1-3 4.2 20:53:14 10° S 20:57:33 57° W 21:01:52 10° NNW
TIMED 4.4 20:56:24 10° SSW 21:00:46 88° ESE 21:05:10 10° NNE
CZ-4B DEB 4.4 21:02:56 40° SSE 21:04:08 79° ENE 21:07:43 10° N
Cosmos 1733 3.7 21:00:29 10° SSW 21:04:18 60° W 21:08:09 10° N
ATLAS 5 CENTAUR R/B 3.0 21:00:14 10° WSW 21:04:42 43° NW 21:09:34 10° NNE
Cosmos 1802 Rocket 3.8 20:59:17 10° S 21:05:23 78° E 21:11:35 10° N
Cosmos 1842 Rocket 3.5 21:05:33 16° S 21:08:57 65° E 21:13:19 10° NNE
Cosmos 1470 3.8 21:07:47 10° SSW 21:11:37 46° W 21:15:27 10° N
Meteor 1-29 3.1 21:11:43 10° N 21:15:12 75° WNW 21:17:45 17° SSW
Helios 1A 3.3 21:12:42 20° S 21:15:26 64° WSW 21:19:37 10° NNW
Cosmos 1459 Rocket 4.4 21:16:58 10° SSW 21:23:08 64° W 21:29:16 10° N
Cosmos 2061 Rocket 4.3 21:18:15 10° SSW 21:24:36 69° W 21:31:03 10° N
SJ-11-01 4.3 21:28:33 44° S 21:30:03 81° WSW 21:34:48 10° NNW
SPOT 5 4.1 21:31:28 30° NE 21:31:28 30° NE 21:35:22 10° N
Cosmos 1340 Rocket 4.2 21:27:24 10° NNW 21:31:06 36° W 21:33:26 19° SSW
Cosmos 2233 Rocket 4.3 21:33:29 44° ENE 21:33:29 44° ENE 21:38:51 10° NNE
Cosmos 1356 Rocket 3.3 21:29:37 10° NNW 21:33:40 79° W 21:33:40 79° W
YAOGAN 6 4.0 21:35:30 30° N 21:35:30 30° N 21:37:36 10° N
Cosmos 2251 Rocket 3.5 21:29:53 10° NNW 21:35:14 84° WSW 21:36:35 52° S
ARGOS 4.2 21:36:23 29° NE 21:36:23 29° NE 21:40:06 10° N
Cosmos 2082 Rocket 4.1 21:33:07 10° NW 21:37:43 26° WSW 21:42:17 10° SSW
CZ-3B DEB 4.3 21:33:13 10° WNW 21:38:16 18° NNW 21:41:33 10° NNE
USA 215 3.1 21:31:47 10° NE 21:38:16 65° SE 21:44:44 10° SW
Cosmos 1864 Rocket 4.4 21:34:28 19° S 21:39:09 82° E 21:45:28 10° N
SL-14 R/B 4.3 21:47:24 10° NNW 21:50:45 44° WNW 21:50:45 44° WNW
Cosmos 2221 4.3 21:58:07 24° N 21:58:07 24° N 21:59:54 10° N
Meteor 1-11 4.4 21:50:06 10° NNW 21:55:38 67° W 21:56:51 52° SSW
Cosmos 2058 4.4 22:02:54 10° NNW 22:05:31 35° NW 22:05:31 35° NW
USA 267 4.3 22:08:51 29° NE 22:10:02 31° NNE 22:15:37 10° NNW
CZ-4C R/B 3.4 22:10:07 10° SW 22:17:57 32° NNE 22:21:11 10° NNE
ERS-1 Rocket 4.0 22:23:12 43° W 22:23:12 43° W 22:27:34 10° NNW
Cosmos 2369 Rocket 2.9 22:23:53 33° WSW 22:26:04 50° WNW 22:31:33 10° NNE
H-2A R/B 3.7 22:40:24 29° N 22:40:24 29° N 22:42:57 10° N
Cosmos 1943 Rocket 4.3 22:50:28 17° NNE 22:50:28 17° NNE 22:51:46 10° NNE
CZ-3 Stage 3 4.1 22:32:37 10° W 22:46:33 33° SW 22:46:33 33° SW
USA 215 4.3 23:15:04 10° NE 23:21:02 40° NNW 23:27:00 10° W
